• In Hungary
  • List of Countries
  • For 7 days
  • Water Temperature
  • Satellite Maps
  • Weather Map
  • News
  • Weather Widgets
  • user-avatar
    Login

    Hourly Weather Sofievka

    Today, 21 May, Monday

    Time Temperature Precipitation Wind Pressure Humidity
    00:00 +8°C° 0 mm 1 mps 751 mmHg 71%
    01:00 +8°C° 0 mm 1 mps 751 mmHg 72%
    02:00 +7°C° 0 mm 1 mps 751 mmHg 74%
    03:00 +8°C° 0 mm 1 mps 752 mmHg 73%
    04:00 +9°C° 0 mm 1 mps 752 mmHg 72%
    05:00 +9°C° 0 mm 1 mps 752 mmHg 71%
    06:00 +12°C° 0 mm 1 mps 753 mmHg 63%
    07:00 +14°C° 0 mm 1 mps 753 mmHg 54%
    08:00 +18°C° 0 mm 1 mps 753 mmHg 46%
    09:00 +19°C° 0 mm 1 mps 753 mmHg 42%
    10:00 +21°C° 0 mm 1 mps 753 mmHg 38%
    11:00 +21°C° 0 mm 2 mps 753 mmHg 33%
    12:00 +21°C° 0 mm 2 mps 753 mmHg 33%
    13:00 +23°C° 0 mm 2 mps 753 mmHg 32%
    14:00 +23°C° 0 mm 2 mps 753 mmHg 31%
    15:00 +23°C° 0 mm 2 mps 753 mmHg 34%
    16:00 +21°C° 0 mm 2 mps 752 mmHg 36%
    17:00 +21°C° 0 mm 2 mps 752 mmHg 38%
    18:00 +19°C° 0 mm 2 mps 752 mmHg 47%
    19:00 +17°C° 0 mm 2 mps 752 mmHg 56%
    20:00 +14°C° 0 mm 1 mps 752 mmHg 64%
    21:00 +13°C° 0 mm 1 mps 752 mmHg 67%
    22:00 +12°C° 0 mm 1 mps 753 mmHg 70%
    23:00 +11°C° 0 mm 1 mps 753 mmHg 73%

    Tomorrow, 22 May, Tuesday

    Time Temperature Precipitation Wind Pressure Humidity
    00:00 +11°C° 0 mm 1 mps 753 mmHg 74%
    01:00 +10°C° 0 mm 1 mps 753 mmHg 76%
    02:00 +10°C° 0 mm 1 mps 753 mmHg 78%
    03:00 +10°C° 0 mm 1 mps 753 mmHg 77%
    04:00 +11°C° 0 mm 1 mps 753 mmHg 76%
    05:00 +10°C° 0 mm 2 mps 753 mmHg 76%
    06:00 +13°C° 0 mm 2 mps 753 mmHg 67%
    07:00 +14°C° 0 mm 3 mps 753 mmHg 58%
    08:00 +17°C° 0 mm 3 mps 752 mmHg 50%
    09:00 +18°C° 0 mm 4 mps 752 mmHg 47%
    10:00 +19°C° 0 mm 4 mps 752 mmHg 45%
    11:00 +19°C° 0 mm 4 mps 751 mmHg 43%
    12:00 +17°C° 0.4 mm 4 mps 751 mmHg 54%
    13:00 +16°C° 0.4 mm 3 mps 751 mmHg 66%
    14:00 +13°C° 0.4 mm 3 mps 750 mmHg 77%
    15:00 +14°C° 0.1 mm 3 mps 750 mmHg 74%
    16:00 +14°C° 0.1 mm 3 mps 750 mmHg 71%
    17:00 +16°C° 0.1 mm 3 mps 749 mmHg 67%
    18:00 +15°C° 0 mm 2 mps 749 mmHg 74%
    19:00 +14°C° 0 mm 2 mps 749 mmHg 80%
    20:00 +13°C° 0 mm 2 mps 748 mmHg 87%
    21:00 +13°C° 0 mm 2 mps 748 mmHg 89%
    22:00 +13°C° 0 mm 2 mps 748 mmHg 91%
    23:00 +13°C° 0 mm 2 mps 748 mmHg 93%

    Day after tomorrow, 23 May, Wednesday

    Time Temperature Precipitation Wind Pressure Humidity
    00:00 +13°C° 0 mm 2 mps 748 mmHg 95%
    01:00 +12°C° 0 mm 1 mps 748 mmHg 96%
    02:00 +12°C° 0 mm 1 mps 748 mmHg 97%
    03:00 +12°C° 0 mm 1 mps 748 mmHg 96%
    04:00 +12°C° 0 mm 1 mps 748 mmHg 95%
    05:00 +12°C° 0 mm 1 mps 748 mmHg 93%
    06:00 +14°C° 0 mm 1 mps 748 mmHg 85%
    07:00 +16°C° 0 mm 2 mps 748 mmHg 77%
    08:00 +18°C° 0 mm 2 mps 747 mmHg 69%
    09:00 +19°C° 0 mm 2 mps 747 mmHg 63%
    10:00 +20°C° 0 mm 2 mps 747 mmHg 57%
    11:00 +22°C° 0 mm 3 mps 747 mmHg 51%
    12:00 +21°C° 0.9 mm 3 mps 747 mmHg 56%
    13:00 +21°C° 0.9 mm 3 mps 746 mmHg 62%
    14:00 +20°C° 0.9 mm 3 mps 746 mmHg 68%
    15:00 +20°C° 1.2 mm 3 mps 746 mmHg 72%
    16:00 +19°C° 1.2 mm 2 mps 746 mmHg 75%
    17:00 +19°C° 1.2 mm 2 mps 746 mmHg 79%
    18:00 +17°C° 0.5 mm 2 mps 746 mmHg 84%
    19:00 +16°C° 0.5 mm 2 mps 746 mmHg 89%
    20:00 +15°C° 0.5 mm 1 mps 746 mmHg 94%
    21:00 +14°C° 0.1 mm 1 mps 746 mmHg 95%
    22:00 +13°C° 0.1 mm 1 mps 746 mmHg 96%
    23:00 +12°C° 0.1 mm 1 mps 747 mmHg 97%

    24 May, Thursday

    Time Temperature Precipitation Wind Pressure Humidity
    00:00 +12°C° 0 mm 1 mps 747 mmHg 97%
    01:00 +12°C° 0 mm 1 mps 747 mmHg 97%
    02:00 +11°C° 0 mm 1 mps 747 mmHg 97%
    03:00 +11°C° 0 mm 1 mps 747 mmHg 96%
    04:00 +12°C° 0 mm 2 mps 748 mmHg 96%
    05:00 +12°C° 0 mm 2 mps 748 mmHg 95%
    06:00 +13°C° 0 mm 2 mps 748 mmHg 89%
    07:00 +15°C° 0 mm 2 mps 749 mmHg 83%
    08:00 +17°C° 0 mm 2 mps 749 mmHg 76%
    09:00 +18°C° 0.1 mm 2 mps 749 mmHg 70%
    10:00 +19°C° 0.1 mm 3 mps 749 mmHg 63%
    11:00 +21°C° 0.1 mm 3 mps 750 mmHg 57%
    12:00 +20°C° 0.6 mm 3 mps 750 mmHg 61%
    13:00 +20°C° 0.6 mm 4 mps 750 mmHg 66%
    14:00 +19°C° 0.6 mm 4 mps 750 mmHg 70%
    15:00 +19°C° 0.1 mm 4 mps 750 mmHg 67%
    16:00 +19°C° 0.1 mm 4 mps 750 mmHg 64%
    17:00 +19°C° 0.1 mm 4 mps 750 mmHg 61%
    18:00 +17°C° 0 mm 3 mps 751 mmHg 65%
    19:00 +14°C° 0 mm 3 mps 751 mmHg 69%
    20:00 +14°C° 0 mm 2 mps 752 mmHg 73%
    21:00 +12°C° 0 mm 2 mps 752 mmHg 71%
    22:00 +10°C° 0 mm 3 mps 753 mmHg 69%
    23:00 +9°C° 0 mm 3 mps 753 mmHg 66%

    25 May, Friday

    Time Temperature Precipitation Wind Pressure Humidity
    00:00 +8°C° 0 mm 3 mps 754 mmHg 67%
    01:00 +7°C° 0 mm 2 mps 754 mmHg 67%
    02:00 +6°C° 0 mm 2 mps 754 mmHg 67%
    03:00 +7°C° 0 mm 2 mps 755 mmHg 66%
    04:00 +7°C° 0 mm 3 mps 755 mmHg 65%
    05:00 +7°C° 0 mm 3 mps 755 mmHg 65%
    06:00 +9°C° 0 mm 3 mps 756 mmHg 59%
    07:00 +11°C° 0 mm 3 mps 756 mmHg 53%
    08:00 +12°C° 0 mm 3 mps 756 mmHg 47%
    09:00 +13°C° 0 mm 3 mps 756 mmHg 44%
    10:00 +14°C° 0 mm 3 mps 756 mmHg 41%
    11:00 +16°C° 0 mm 3 mps 756 mmHg 38%
    12:00 +17°C° 0 mm 3 mps 756 mmHg 37%
    13:00 +18°C° 0 mm 3 mps 756 mmHg 37%
    14:00 +18°C° 0 mm 3 mps 756 mmHg 36%
    15:00 +18°C° 0 mm 3 mps 756 mmHg 37%
    16:00 +18°C° 0 mm 3 mps 756 mmHg 39%
    17:00 +18°C° 0 mm 3 mps 756 mmHg 40%
    18:00 +16°C° 0 mm 2 mps 756 mmHg 48%
    19:00 +14°C° 0 mm 2 mps 756 mmHg 56%
    20:00 +12°C° 0 mm 2 mps 756 mmHg 64%
    21:00 +10°C° 0 mm 2 mps 756 mmHg 65%
    22:00 +9°C° 0 mm 2 mps 756 mmHg 67%
    23:00 +7°C° 0 mm 2 mps 756 mmHg 69%

    26 May, Saturday

    Time Temperature Precipitation Wind Pressure Humidity
    00:00 +7°C° 0 mm 2 mps 756 mmHg 69%
    01:00 +6°C° 0 mm 2 mps 757 mmHg 70%
    02:00 +7°C° 0 mm 1 mps 757 mmHg 71%
    03:00 +7°C° 0 mm 1 mps 757 mmHg 71%
    04:00 +7°C° 0 mm 2 mps 757 mmHg 70%
    05:00 +7°C° 0 mm 2 mps 757 mmHg 69%
    06:00 +10°C° 0 mm 2 mps 757 mmHg 63%
    07:00 +13°C° 0 mm 2 mps 757 mmHg 56%
    08:00 +15°C° 0 mm 2 mps 757 mmHg 49%
    09:00 +16°C° 0 mm 2 mps 757 mmHg 45%
    10:00 +18°C° 0 mm 2 mps 756 mmHg 41%
    11:00 +19°C° 0 mm 2 mps 756 mmHg 37%
    12:00 +20°C° 0 mm 2 mps 755 mmHg 36%
    13:00 +20°C° 0 mm 2 mps 755 mmHg 36%
    14:00 +21°C° 0 mm 2 mps 755 mmHg 36%
    15:00 +21°C° 0 mm 2 mps 754 mmHg 38%
    16:00 +21°C° 0 mm 2 mps 754 mmHg 41%
    17:00 +20°C° 0 mm 2 mps 753 mmHg 43%
    18:00 +18°C° 0 mm 2 mps 753 mmHg 52%
    19:00 +16°C° 0 mm 2 mps 753 mmHg 61%
    20:00 +14°C° 0 mm 2 mps 753 mmHg 70%
    21:00 +13°C° 0 mm 2 mps 753 mmHg 73%
    22:00 +12°C° 0 mm 2 mps 753 mmHg 76%
    23:00 +10°C° 0 mm 2 mps 753 mmHg 79%
    Show more